Time,TemperatureF,DewpointF,PressureIn,WindDirection,WindDirectionDegrees,WindSpeedMPH,WindSpeedGustMPH,Humidity,HourlyPrecipIn,Conditions,Clouds,dailyrainin,SoftwareType,DateUTC
2013-03-20 00:02:00,19.3,11.0,30.08,WNW,284,2.0,7.0,71,0.00,,,0.00,weatherlink.com 1.10,2013-03-20 05:02:00,
2013-03-20 00:17:00,18.8,11.0,30.08,West,275,3.0,5.0,70,0.00,,,0.00,weatherlink.com 1.10,2013-03-20 05:17:00,
2013-03-20 00:32:00,18.1,10.0,30.08,West,278,2.0,7.0,70,0.00,,,0.00,weatherlink.com 1.10,2013-03-20 05:32:00,
2013-03-20 00:47:00,17.4,9.0,30.08,West,272,3.0,10.0,69,0.00,,,0.00,weatherlink.com 1.10,2013-03-20 05:47:00,
2013-03-20 01:02:00,16.7,7.0,30.09,WNW,296,3.0,10.0,66,0.00,,,0.00,weatherlink.com 1.10,2013-03-20 06:02:00,
2013-03-20 01:17:00,15.7,7.0,30.09,WNW,300,5.0,8.0,67,0.00,,,0.00,weatherlink.com 1.10,2013-03-20 06:17:00,
2013-03-20 01:32:00,14.9,6.0,30.10,West,275,2.0,6.0,68,0.00,,,0.00,weatherlink.com 1.10,2013-03-20 06:32:00,
2013-03-20 01:47:00,14.3,6.0,30.09,WNW,296,3.0,6.0,70,0.00,,,0.00,weatherlink.com 1.10,2013-03-20 06:47:00,
2013-03-20 02:02:00,13.7,6.0,30.10,WNW,294,2.0,6.0,71,0.00,,,0.00,weatherlink.com 1.10,2013-03-20 07:02:00,
2013-03-20 02:17:00,13.4,6.0,30.10,NW,307,2.0,5.0,72,0.00,,,0.00,weatherlink.com 1.10,2013-03-20 07:17:00,
2013-03-20 02:32:00,12.7,6.0,30.10,WNW,287,2.0,6.0,73,0.00,,,0.00,weatherlink.com 1.10,2013-03-20 07:32:00,
2013-03-20 02:47:00,12.1,5.0,30.10,West,277,3.0,5.0,74,0.00,,,0.00,weatherlink.com 1.10,2013-03-20 07:47:00,
2013-03-20 03:02:00,11.9,5.0,30.10,WNW,292,2.0,6.0,73,0.00,,,0.00,weatherlink.com 1.10,2013-03-20 08:02:00,
2013-03-20 03:17:00,11.6,5.0,30.10,WNW,293,3.0,6.0,74,0.00,,,0.00,weatherlink.com 1.10,2013-03-20 08:17:00,
2013-03-20 03:32:00,11.2,4.0,30.10,WNW,287,4.0,6.0,74,0.00,,,0.00,weatherlink.com 1.10,2013-03-20 08:32:00,
2013-03-20 03:47:00,10.8,4.0,30.10,WNW,298,3.0,5.0,75,0.00,,,0.00,weatherlink.com 1.10,2013-03-20 08:47:00,
2013-03-20 04:02:00,10.4,4.0,30.10,WNW,292,4.0,8.0,75,0.00,,,0.00,weatherlink.com 1.10,2013-03-20 09:02:00,
2013-03-20 04:17:00,10.1,4.0,30.10,WNW,296,4.0,5.0,75,0.00,,,0.00,weatherlink.com 1.10,2013-03-20 09:17:00,
2013-03-20 04:32:00,9.8,4.0,30.10,WNW,290,2.0,5.0,76,0.00,,,0.00,weatherlink.com 1.10,2013-03-20 09:32:00,
2013-03-20 04:47:00,9.4,3.0,30.10,West,278,2.0,6.0,76,0.00,,,0.00,weatherlink.com 1.10,2013-03-20 09:47:00,
2013-03-20 05:02:00,9.3,3.0,30.11,West,279,3.0,5.0,75,0.00,,,0.00,weatherlink.com 1.10,2013-03-20 10:02:00,
2013-03-20 05:17:00,9.0,3.0,30.10,West,273,3.0,5.0,75,0.00,,,0.00,weatherlink.com 1.10,2013-03-20 10:17:00,
2013-03-20 05:32:00,8.9,3.0,30.11,WNW,282,2.0,5.0,75,0.00,,,0.00,weatherlink.com 1.10,2013-03-20 10:32:00,
2013-03-20 05:48:00,8.7,2.0,30.11,WNW,288,3.0,6.0,75,0.00,,,0.00,weatherlink.com 1.10,2013-03-20 10:48:00,
2013-03-20 06:03:00,8.4,2.0,30.11,WNW,284,2.0,5.0,75,0.00,,,0.00,weatherlink.com 1.10,2013-03-20 11:03:00,
2013-03-20 06:18:00,8.2,2.0,30.12,WNW,289,3.0,5.0,74,0.00,,,0.00,weatherlink.com 1.10,2013-03-20 11:18:00,
2013-03-20 06:33:00,8.0,1.0,30.12,West,277,3.0,6.0,74,0.00,,,0.00,weatherlink.com 1.10,2013-03-20 11:33:00,
2013-03-20 06:48:00,7.9,1.0,30.12,West,281,2.0,5.0,74,0.00,,,0.00,weatherlink.com 1.10,2013-03-20 11:48:00,
2013-03-20 07:03:00,7.8,1.0,30.12,West,279,3.0,6.0,74,0.00,,,0.00,weatherlink.com 1.10,2013-03-20 12:03:00,
2013-03-20 07:18:00,7.9,1.0,30.12,WSW,254,2.0,6.0,73,0.00,,,0.00,weatherlink.com 1.10,2013-03-20 12:18:00,
2013-03-20 07:33:00,7.7,1.0,30.13,WNW,294,3.0,5.0,74,0.00,,,0.00,weatherlink.com 1.10,2013-03-20 12:33:00,
2013-03-20 07:48:00,7.8,1.0,30.13,WNW,286,2.0,6.0,74,0.00,,,0.00,weatherlink.com 1.10,2013-03-20 12:48:00,
2013-03-20 08:03:00,8.2,2.0,30.14,WNW,288,3.0,5.0,74,0.00,,,0.00,weatherlink.com 1.10,2013-03-20 13:03:00,
2013-03-20 08:18:00,8.6,2.0,30.14,West,272,2.0,5.0,73,0.00,,,0.00,weatherlink.com 1.10,2013-03-20 13:18:00,
2013-03-20 08:33:00,8.9,2.0,30.14,West,280,4.0,6.0,73,0.00,,,0.00,weatherlink.com 1.10,2013-03-20 13:33:00,
2013-03-20 08:48:00,9.5,2.0,30.14,WNW,285,3.0,8.0,72,0.00,,,0.00,weatherlink.com 1.10,2013-03-20 13:48:00,
2013-03-20 09:03:00,9.9,3.0,30.13,West,270,4.0,7.0,72,0.00,,,0.00,weatherlink.com 1.10,2013-03-20 14:03:00,
2013-03-20 09:18:00,10.7,3.0,30.13,WNW,286,4.0,5.0,72,0.00,,,0.00,weatherlink.com 1.10,2013-03-20 14:18:00,
2013-03-20 09:33:00,11.3,4.0,30.13,WNW,293,3.0,5.0,72,0.00,,,0.00,weatherlink.com 1.10,2013-03-20 14:33:00,
2013-03-20 09:48:00,11.5,4.0,30.13,West,277,5.0,6.0,70,0.00,,,0.00,weatherlink.com 1.10,2013-03-20 14:48:00,
2013-03-20 10:03:00,11.9,4.0,30.12,West,265,5.0,9.0,71,0.00,,,0.00,weatherlink.com 1.10,2013-03-20 15:03:00,
2013-03-20 10:18:00,12.5,4.0,30.12,WNW,295,3.0,9.0,69,0.00,,,0.00,weatherlink.com 1.10,2013-03-20 15:18:00,
2013-03-20 10:33:00,13.5,5.0,30.12,West,272,3.0,7.0,69,0.00,,,0.00,weatherlink.com 1.10,2013-03-20 15:33:00,
2013-03-20 10:48:00,14.0,6.0,30.12,WNW,292,3.0,9.0,69,0.00,,,0.00,weatherlink.com 1.10,2013-03-20 15:48:00,
2013-03-20 11:03:00,14.1,5.0,30.12,West,269,5.0,8.0,68,0.00,,,0.00,weatherlink.com 1.10,2013-03-20 16:03:00,
2013-03-20 11:18:00,15.0,6.0,30.12,NW,304,3.0,11.0,68,0.00,,,0.00,weatherlink.com 1.10,2013-03-20 16:18:00,
2013-03-20 11:33:00,15.3,6.0,30.12,WSW,257,5.0,9.0,67,0.00,,,0.00,weatherlink.com 1.10,2013-03-20 16:33:00,
2013-03-20 11:48:00,15.5,6.0,30.11,West,265,5.0,9.0,66,0.00,,,0.00,weatherlink.com 1.10,2013-03-20 16:48:00,
2013-03-20 12:03:00,16.8,8.0,30.11,WSW,255,3.0,7.0,67,0.00,,,0.00,weatherlink.com 1.10,2013-03-20 17:03:00,
2013-03-20 12:18:00,17.2,8.0,30.11,WNW,283,4.0,6.0,66,0.00,,,0.00,weatherlink.com 1.10,2013-03-20 17:18:00,
2013-03-20 12:33:00,17.3,7.0,30.11,WNW,286,3.0,9.0,65,0.00,,,0.00,weatherlink.com 1.10,2013-03-20 17:33:00,
2013-03-20 12:48:00,18.1,8.0,30.11,WNW,298,2.0,9.0,65,0.00,,,0.00,weatherlink.com 1.10,2013-03-20 17:48:00,
2013-03-20 13:03:00,18.6,9.0,30.10,WNW,285,3.0,7.0,65,0.00,,,0.00,weatherlink.com 1.10,2013-03-20 18:03:00,
2013-03-20 13:18:00,18.6,8.0,30.10,West,277,5.0,8.0,63,0.00,,,0.00,weatherlink.com 1.10,2013-03-20 18:18:00,
2013-03-20 13:33:00,18.7,8.0,30.09,WNW,303,2.0,6.0,63,0.00,,,0.00,weatherlink.com 1.10,2013-03-20 18:33:00,
2013-03-20 13:48:00,19.4,10.0,30.08,West,280,5.0,8.0,67,0.00,,,0.00,weatherlink.com 1.10,2013-03-20 18:48:00,
2013-03-20 14:03:00,19.6,9.0,30.08,West,272,2.0,9.0,63,0.00,,,0.00,weatherlink.com 1.10,2013-03-20 19:03:00,
2013-03-20 14:18:00,19.9,10.0,30.08,NW,308,3.0,8.0,66,0.00,,,0.00,weatherlink.com 1.10,2013-03-20 19:18:00,
2013-03-20 14:33:00,19.9,9.0,30.06,WNW,289,4.0,9.0,63,0.00,,,0.00,weatherlink.com 1.10,2013-03-20 19:33:00,
2013-03-20 14:48:00,20.4,9.0,30.06,NW,310,4.0,7.0,62,0.00,,,0.00,weatherlink.com 1.10,2013-03-20 19:48:00,
2013-03-20 15:03:00,20.3,9.0,30.06,West,278,3.0,8.0,63,0.00,,,0.00,weatherlink.com 1.10,2013-03-20 20:03:00,
2013-03-20 15:18:00,21.0,10.0,30.06,West,274,4.0,7.0,62,0.00,,,0.00,weatherlink.com 1.10,2013-03-20 20:18:00,
2013-03-20 15:33:00,21.3,10.0,30.05,NW,308,3.0,8.0,63,0.00,,,0.00,weatherlink.com 1.10,2013-03-20 20:33:00,
2013-03-20 15:48:00,20.9,9.0,30.05,WNW,288,4.0,8.0,61,0.00,,,0.00,weatherlink.com 1.10,2013-03-20 20:48:00,
2013-03-20 16:03:00,21.2,11.0,30.04,NW,307,2.0,7.0,65,0.00,,,0.00,weatherlink.com 1.10,2013-03-20 21:03:00,
2013-03-20 16:18:00,21.5,11.0,30.05,West,279,4.0,7.0,63,0.00,,,0.00,weatherlink.com 1.10,2013-03-20 21:18:00,
2013-03-20 16:33:00,20.9,10.0,30.04,WNW,290,4.0,9.0,63,0.00,,,0.00,weatherlink.com 1.10,2013-03-20 21:33:00,
2013-03-20 16:48:00,21.1,10.0,30.04,WNW,297,3.0,8.0,62,0.00,,,0.00,weatherlink.com 1.10,2013-03-20 21:48:00,
2013-03-20 17:03:00,21.1,10.0,30.05,West,281,3.0,7.0,63,0.00,,,0.00,weatherlink.com 1.10,2013-03-20 22:03:00,
2013-03-20 17:18:00,20.9,10.0,30.05,WNW,301,6.0,8.0,62,0.00,,,0.00,weatherlink.com 1.10,2013-03-20 22:18:00,
2013-03-20 17:33:00,20.4,10.0,30.05,WNW,292,3.0,8.0,64,0.00,,,0.00,weatherlink.com 1.10,2013-03-20 22:33:00,
2013-03-20 17:48:00,20.5,10.0,30.05,NW,323,4.0,7.0,63,0.00,,,0.00,weatherlink.com 1.10,2013-03-20 22:48:00,
2013-03-20 18:03:00,20.1,10.0,30.05,NW,315,4.0,8.0,65,0.00,,,0.00,weatherlink.com 1.10,2013-03-20 23:03:00,
2013-03-20 18:18:00,19.3,9.0,30.06,WNW,288,3.0,10.0,65,0.00,,,0.00,weatherlink.com 1.10,2013-03-20 23:18:00,
2013-03-20 18:33:00,19.0,9.0,30.06,WNW,303,4.0,7.0,66,0.00,,,0.00,weatherlink.com 1.10,2013-03-20 23:33:00,
2013-03-20 18:48:00,18.2,9.0,30.06,NW,320,5.0,7.0,68,0.00,,,0.00,weatherlink.com 1.10,2013-03-20 23:48:00,
2013-03-20 19:03:00,17.7,9.0,30.07,WNW,302,3.0,4.0,70,0.00,,,0.00,weatherlink.com 1.10,2013-03-21 00:03:00,
2013-03-20 19:18:00,17.2,9.0,30.07,WNW,298,4.0,8.0,69,0.00,,,0.00,weatherlink.com 1.10,2013-03-21 00:18:00,
2013-03-20 19:33:00,16.8,9.0,30.07,WNW,301,3.0,8.0,70,0.00,,,0.00,weatherlink.com 1.10,2013-03-21 00:33:00,
2013-03-20 19:48:00,16.5,8.0,30.07,NW,313,5.0,7.0,70,0.00,,,0.00,weatherlink.com 1.10,2013-03-21 00:48:00,
2013-03-20 20:03:00,16.1,8.0,30.06,NW,317,3.0,5.0,71,0.00,,,0.00,weatherlink.com 1.10,2013-03-21 01:03:00,
2013-03-20 20:19:00,15.7,8.0,30.07,WNW,298,3.0,6.0,72,0.00,,,0.00,weatherlink.com 1.10,2013-03-21 01:19:00,
2013-03-20 20:34:00,15.4,8.0,30.07,WNW,292,2.0,4.0,73,0.00,,,0.00,weatherlink.com 1.10,2013-03-21 01:34:00,
2013-03-20 20:49:00,15.0,8.0,30.07,WNW,300,2.0,3.0,74,0.00,,,0.00,weatherlink.com 1.10,2013-03-21 01:49:00,
2013-03-20 21:04:00,14.6,8.0,30.07,WNW,289,1.0,4.0,75,0.00,,,0.00,weatherlink.com 1.10,2013-03-21 02:04:00,
2013-03-20 21:19:00,14.4,8.0,30.07,WNW,293,1.0,3.0,76,0.00,,,0.00,weatherlink.com 1.10,2013-03-21 02:19:00,
2013-03-20 21:34:00,14.1,8.0,30.07,WNW,293,1.0,3.0,76,0.00,,,0.00,weatherlink.com 1.10,2013-03-21 02:34:00,
2013-03-20 21:49:00,14.0,8.0,30.07,NW,308,2.0,3.0,77,0.00,,,0.00,weatherlink.com 1.10,2013-03-21 02:49:00,
2013-03-20 22:04:00,13.6,8.0,30.07,WNW,302,2.0,2.0,77,0.00,,,0.00,weatherlink.com 1.10,2013-03-21 03:04:00,
2013-03-20 22:19:00,13.1,7.0,30.07,WNW,302,1.0,2.0,77,0.00,,,0.00,weatherlink.com 1.10,2013-03-21 03:19:00,
2013-03-20 22:34:00,12.8,7.0,30.08,WNW,302,1.0,2.0,78,0.00,,,0.00,weatherlink.com 1.10,2013-03-21 03:34:00,
2013-03-20 22:49:00,12.3,7.0,30.08,WNW,302,0.0,2.0,78,0.00,,,0.00,weatherlink.com 1.10,2013-03-21 03:49:00,
2013-03-20 23:04:00,11.9,7.0,30.08,WNW,302,0.0,2.0,80,0.00,,,0.00,weatherlink.com 1.10,2013-03-21 04:04:00,
2013-03-20 23:19:00,12.0,7.0,30.08,WNW,302,0.0,3.0,80,0.00,,,0.00,weatherlink.com 1.10,2013-03-21 04:19:00,
2013-03-20 23:34:00,12.2,7.0,30.08,WNW,294,1.0,4.0,79,0.00,,,0.00,weatherlink.com 1.10,2013-03-21 04:34:00,
2013-03-20 23:49:00,12.3,7.0,30.08,West,279,1.0,3.0,79,0.00,,,0.00,weatherlink.com 1.10,2013-03-21 04:49:00,